owner,sensor,date,latitude,longitude,vertical_datum,wind_speed,wind_to_direction,wind_speed_of_gust,qcFlag 
ADCP,ioos:station:wmo:42376:1,2012-11-01T00:00:00Z,29.1080,-87.9440,1.0,8.9,311.0,99.0,'11111222,11111222,11144222' 
ADCP,ioos:station:wmo:42376:1,2012-11-01T00:20:00Z,29.1080,-87.9440,1.0,8.9,311.0,99.0,'11111222,11111222,11144222' 
ADCP,ioos:station:wmo:42376:1,2012-11-01T00:40:00Z,29.1080,-87.9440,1.0,9.3,314.0,99.0,'11111222,11111222,11144222' 
ADCP,ioos:station:wmo:42376:1,2012-11-01T01:00:00Z,29.1080,-87.9440,1.0,9.5,315.0,99.0,'11111222,11111222,11144222' 
ADCP,ioos:station:wmo:42376:1,2012-11-01T01:20:00Z,29.1080,-87.9440,1.0,9.5,315.0,99.0,'11111222,11111222,11144222' 
ADCP,ioos:station:wmo:42376:1,2012-11-01T01:40:00Z,29.1080,-87.9440,1.0,10.1,313.0,99.0,'11111222,11111222,11144222' 
ADCP,ioos:station:wmo:42376:1,2012-11-01T02:00:00Z,29.1080,-87.9440,1.0,10.5,312.0,99.0,'11111222,11111222,11144222' 
ADCP,ioos:station:wmo:42376:1,2012-11-01T02:20:00Z,29.1080,-87.9440,1.0,10.5,312.0,99.0,'11111222,11111222,11144222' 
ADCP,ioos:station:wmo:42376:1,2012-11-01T02:40:00Z,29.1080,-87.9440,1.0,10.5,314.0,99.0,'11111222,11111222,11144222' 
ADCP,ioos:station:wmo:42376:1,2012-11-01T03:00:00Z,29.1080,-87.9440,1.0,10.6,315.0,99.0,'11111222,11111222,11144222' 
ADCP,ioos:station:wmo:42376:1,2012-11-01T03:20:00Z,29.1080,-87.9440,1.0,10.6,315.0,99.0,'11111222,11111222,11144222' 
ADCP,ioos:station:wmo:42376:1,2012-11-01T03:40:00Z,29.1080,-87.9440,1.0,10.6,318.0,99.0,'11111222,11111222,11144222' 
ADCP,ioos:station:wmo:42376:1,2012-11-01T04:00:00Z,29.1080,-87.9440,1.0,11.3,317.0,99.0,'11111222,11111222,11144222' 
ADCP,ioos:station:wmo:42376:1,2012-11-01T04:20:00Z,29.1080,-87.9440,1.0,11.3,317.0,99.0,'11111222,11111222,11144222' 
ADCP,ioos:station:wmo:42376:1,2012-11-01T04:40:00Z,29.1080,-87.9440,1.0,11.3,316.0,99.0,'11111222,11111222,11144222' 
ADCP,ioos:station:wmo:42376:1,2012-11-01T05:00:00Z,29.1080,-87.9440,1.0,11.1,315.0,99.0,'11111222,11111222,11144222' 
ADCP,ioos:station:wmo:42376:1,2012-11-01T05:20:00Z,29.1080,-87.9440,1.0,11.1,315.0,99.0,'11111222,11111222,11144222' 
ADCP,ioos:station:wmo:42376:1,2012-11-01T05:40:00Z,29.1080,-87.9440,1.0,10.7,317.0,99.0,'11111222,11111222,11144222' 
ADCP,ioos:station:wmo:42376:1,2012-11-01T06:00:00Z,29.1080,-87.9440,1.0,10.8,315.0,99.0,'11111222,11111222,11144222' 
ADCP,ioos:station:wmo:42376:1,2012-11-01T06:20:00Z,29.1080,-87.9440,1.0,10.8,315.0,99.0,'11111222,11111222,11144222' 
ADCP,ioos:station:wmo:42376:1,2012-11-01T06:40:00Z,29.1080,-87.9440,1.0,11.2,311.0,99.0,'11111222,11111222,11144222' 
ADCP,ioos:station:wmo:42376:1,2012-11-01T07:00:00Z,29.1080,-87.9440,1.0,11.2,315.0,99.0,'11111222,11111222,11144222' 
ADCP,ioos:station:wmo:42376:1,2012-11-01T07:20:00Z,29.1080,-87.9440,1.0,11.2,315.0,99.0,'11111222,11111222,11144222' 
ADCP,ioos:station:wmo:42376:1,2012-11-01T07:40:00Z,29.1080,-87.9440,1.0,11.3,319.0,99.0,'11111222,11111222,11144222' 
ADCP,ioos:station:wmo:42376:1,2012-11-01T08:00:00Z,29.1080,-87.9440,1.0,11.6,318.0,99.0,'11111222,11111222,11144222' 
ADCP,ioos:station:wmo:42376:1,2012-11-01T08:20:00Z,29.1080,-87.9440,1.0,11.6,318.0,99.0,'11111222,11111222,11144222' 
ADCP,ioos:station:wmo:42376:1,2012-11-01T08:40:00Z,29.1080,-87.9440,1.0,11.9,318.0,99.0,'11111222,11111222,11144222' 
ADCP,ioos:station:wmo:42376:1,2012-11-01T09:00:00Z,29.1080,-87.9440,1.0,12.0,320.0,99.0,'11111222,11111222,11144222' 
ADCP,ioos:station:wmo:42376:1,2012-11-01T09:20:00Z,29.1080,-87.9440,1.0,12.0,320.0,99.0,'11111222,11111222,11144222' 
ADCP,ioos:station:wmo:42376:1,2012-11-01T09:40:00Z,29.1080,-87.9440,1.0,11.5,323.0,99.0,'11111222,11111222,11144222' 
ADCP,ioos:station:wmo:42376:1,2012-11-01T10:00:00Z,29.1080,-87.9440,1.0,11.6,326.0,99.0,'11111222,11111222,11144222' 
ADCP,ioos:station:wmo:42376:1,2012-11-01T10:20:00Z,29.1080,-87.9440,1.0,11.6,326.0,99.0,'11111222,11111222,11144222' 
ADCP,ioos:station:wmo:42376:1,2012-11-01T10:40:00Z,29.1080,-87.9440,1.0,13.9,333.0,99.0,'11111222,11111222,11144222' 
ADCP,ioos:station:wmo:42376:1,2012-11-01T11:00:00Z,29.1080,-87.9440,1.0,13.2,338.0,99.0,'11111222,11111222,11144222' 
ADCP,ioos:station:wmo:42376:1,2012-11-01T11:20:00Z,29.1080,-87.9440,1.0,13.2,338.0,99.0,'11111222,11111222,11144222' 
ADCP,ioos:station:wmo:42376:1,2012-11-01T11:40:00Z,29.1080,-87.9440,1.0,13.2,342.0,99.0,'11111222,11111222,11144222' 
ADCP,ioos:station:wmo:42376:1,2012-11-01T12:00:00Z,29.1080,-87.9440,1.0,13.9,326.0,99.0,'11111222,11111222,11144222' 
ADCP,ioos:station:wmo:42376:1,2012-11-01T12:20:00Z,29.1080,-87.9440,1.0,13.9,326.0,99.0,'11111222,11111222,11144222' 
ADCP,ioos:station:wmo:42376:1,2012-11-01T12:40:00Z,29.1080,-87.9440,1.0,13.1,295.0,99.0,'11111222,11111222,11144222' 
ADCP,ioos:station:wmo:42376:1,2012-11-01T13:00:00Z,29.1080,-87.9440,1.0,11.8,270.0,99.0,'11111222,11111222,11144222' 
ADCP,ioos:station:wmo:42376:1,2012-11-01T13:20:00Z,29.1080,-87.9440,1.0,11.8,270.0,99.0,'11111222,11111222,11144222' 
ADCP,ioos:station:wmo:42376:1,2012-11-01T13:40:00Z,29.1080,-87.9440,1.0,9.9,172.0,99.0,'11111222,11111222,11144222' 
ADCP,ioos:station:wmo:42376:1,2012-11-01T14:00:00Z,29.1080,-87.9440,1.0,8.4,108.0,99.0,'11111222,11111222,11144222' 
ADCP,ioos:station:wmo:42376:1,2012-11-01T14:20:00Z,29.1080,-87.9440,1.0,8.4,108.0,99.0,'11111222,11111222,11144222' 
ADCP,ioos:station:wmo:42376:1,2012-11-01T14:40:00Z,29.1080,-87.9440,1.0,7.4,64.0,99.0,'11111222,11111222,11144222' 
ADCP,ioos:station:wmo:42376:1,2012-11-01T15:00:00Z,29.1080,-87.9440,1.0,7.3,45.0,99.0,'11111222,11111222,11144222' 
ADCP,ioos:station:wmo:42376:1,2012-11-01T15:20:00Z,29.1080,-87.9440,1.0,7.3,45.0,99.0,'11111222,11111222,11144222' 
ADCP,ioos:station:wmo:42376:1,2012-11-01T15:40:00Z,29.1080,-87.9440,1.0,5.9,54.0,99.0,'11111222,11111222,11144222' 
ADCP,ioos:station:wmo:42376:1,2012-11-01T16:00:00Z,29.1080,-87.9440,1.0,5.4,30.0,99.0,'11111222,11111222,11144222' 
ADCP,ioos:station:wmo:42376:1,2012-11-01T16:20:00Z,29.1080,-87.9440,1.0,5.4,30.0,99.0,'11111222,11111222,11144222' 
ADCP,ioos:station:wmo:42376:1,2012-11-01T16:40:00Z,29.1080,-87.9440,1.0,5.5,30.0,99.0,'11111222,11111222,11144222' 
ADCP,ioos:station:wmo:42376:1,2012-11-01T17:00:00Z,29.1080,-87.9440,1.0,5.6,37.0,99.0,'11111222,11111222,11144222' 
ADCP,ioos:station:wmo:42376:1,2012-11-01T17:20:00Z,29.1080,-87.9440,1.0,5.6,37.0,99.0,'11111222,11111222,11144222' 
ADCP,ioos:station:wmo:42376:1,2012-11-01T17:40:00Z,29.1080,-87.9440,1.0,4.4,50.0,99.0,'11111222,11111222,11144222' 
ADCP,ioos:station:wmo:42376:1,2012-11-01T18:00:00Z,29.1080,-87.9440,1.0,4.1,62.0,99.0,'11111222,11111222,11144222' 
ADCP,ioos:station:wmo:42376:1,2012-11-01T18:20:00Z,29.1080,-87.9440,1.0,4.1,62.0,99.0,'11111222,11111222,11144222' 
ADCP,ioos:station:wmo:42376:1,2012-11-01T18:40:00Z,29.1080,-87.9440,1.0,4.9,70.0,99.0,'11111222,11111222,11144222' 
ADCP,ioos:station:wmo:42376:1,2012-11-01T19:00:00Z,29.1080,-87.9440,1.0,5.1,72.0,99.0,'11111222,11111222,11144222' 
ADCP,ioos:station:wmo:42376:1,2012-11-01T19:20:00Z,29.1080,-87.9440,1.0,5.1,72.0,99.0,'11111222,11111222,11144222' 
ADCP,ioos:station:wmo:42376:1,2012-11-01T19:40:00Z,29.1080,-87.9440,1.0,4.4,76.0,99.0,'11111222,11111222,11144222' 
ADCP,ioos:station:wmo:42376:1,2012-11-01T20:00:00Z,29.1080,-87.9440,1.0,4.1,75.0,99.0,'11111222,11111222,11144222' 
ADCP,ioos:station:wmo:42376:1,2012-11-01T20:20:00Z,29.1080,-87.9440,1.0,4.1,75.0,99.0,'11111222,11111222,11144222' 
ADCP,ioos:station:wmo:42376:1,2012-11-01T20:40:00Z,29.1080,-87.9440,1.0,3.7,73.0,99.0,'11111222,11111222,11144222' 
ADCP,ioos:station:wmo:42376:1,2012-11-01T21:00:00Z,29.1080,-87.9440,1.0,3.3,73.0,99.0,'11111222,11111222,11144222' 
ADCP,ioos:station:wmo:42376:1,2012-11-01T21:20:00Z,29.1080,-87.9440,1.0,3.3,73.0,99.0,'11111222,11111222,11144222' 
ADCP,ioos:station:wmo:42376:1,2012-11-01T21:40:00Z,29.1080,-87.9440,1.0,2.5,83.0,99.0,'11111222,11111222,11144222' 
ADCP,ioos:station:wmo:42376:1,2012-11-01T22:00:00Z,29.1080,-87.9440,1.0,1.2,151.0,99.0,'11111222,11111222,11144222' 
ADCP,ioos:station:wmo:42376:1,2012-11-01T22:20:00Z,29.1080,-87.9440,1.0,1.2,151.0,99.0,'11111222,11111222,11144222' 
ADCP,ioos:station:wmo:42376:1,2012-11-01T22:40:00Z,29.1080,-87.9440,1.0,0.6,127.0,99.0,'11111222,11111222,11144222' 
ADCP,ioos:station:wmo:42376:1,2012-11-01T23:00:00Z,29.1080,-87.9440,1.0,0.5,176.0,99.0,'11111222,11111222,11144222' 
ADCP,ioos:station:wmo:42376:1,2012-11-01T23:20:00Z,29.1080,-87.9440,1.0,0.5,176.0,99.0,'11111222,11111222,11144222' 
ADCP,ioos:station:wmo:42376:1,2012-11-01T23:40:00Z,29.1080,-87.9440,1.0,1.7,280.0,99.0,'11111222,11111222,11144222' 
ADCP,ioos:station:wmo:42376:1,2012-11-02T00:00:00Z,29.1080,-87.9440,1.0,2.5,297.0,99.0,'11111222,11111222,11144222' 
ADCP,ioos:station:wmo:42376:1,2012-11-02T00:20:00Z,29.1080,-87.9440,1.0,2.5,297.0,99.0,'11111222,11111222,11144222' 
ADCP,ioos:station:wmo:42376:1,2012-11-02T00:40:00Z,29.1080,-87.9440,1.0,2.6,307.0,99.0,'11111222,11111222,11144222' 
ADCP,ioos:station:wmo:42376:1,2012-11-02T01:00:00Z,29.1080,-87.9440,1.0,3.1,305.0,99.0,'11111222,11111222,11144222' 
ADCP,ioos:station:wmo:42376:1,2012-11-02T01:20:00Z,29.1080,-87.9440,1.0,3.1,305.0,99.0,'11111222,11111222,11144222' 
ADCP,ioos:station:wmo:42376:1,2012-11-02T01:40:00Z,29.1080,-87.9440,1.0,2.0,288.0,99.0,'11111222,11111222,11144222' 
ADCP,ioos:station:wmo:42376:1,2012-11-02T02:00:00Z,29.1080,-87.9440,1.0,2.5,287.0,99.0,'11111222,11111222,11144222' 
ADCP,ioos:station:wmo:42376:1,2012-11-02T02:20:00Z,29.1080,-87.9440,1.0,2.5,287.0,99.0,'11111222,11111222,11144222' 
ADCP,ioos:station:wmo:42376:1,2012-11-02T02:40:00Z,29.1080,-87.9440,1.0,2.8,199.0,99.0,'11111222,11111222,11144222' 
ADCP,ioos:station:wmo:42376:1,2012-11-02T03:00:00Z,29.1080,-87.9440,1.0,2.7,168.0,99.0,'11111222,11111222,11144222' 
ADCP,ioos:station:wmo:42376:1,2012-11-02T03:20:00Z,29.1080,-87.9440,1.0,2.7,168.0,99.0,'11111222,11111222,11144222' 
ADCP,ioos:station:wmo:42376:1,2012-11-02T03:40:00Z,29.1080,-87.9440,1.0,2.8,208.0,99.0,'11111222,11111222,11144222' 
ADCP,ioos:station:wmo:42376:1,2012-11-02T04:00:00Z,29.1080,-87.9440,1.0,2.3,138.0,99.0,'11111222,11111222,11144222' 
ADCP,ioos:station:wmo:42376:1,2012-11-02T04:20:00Z,29.1080,-87.9440,1.0,2.3,138.0,99.0,'11111222,11111222,11144222' 
ADCP,ioos:station:wmo:42376:1,2012-11-02T04:40:00Z,29.1080,-87.9440,1.0,2.0,111.0,99.0,'11111222,11111222,11144222' 
ADCP,ioos:station:wmo:42376:1,2012-11-02T05:00:00Z,29.1080,-87.9440,1.0,0.8,123.0,99.0,'11111222,11111222,11144222' 
ADCP,ioos:station:wmo:42376:1,2012-11-02T05:20:00Z,29.1080,-87.9440,1.0,0.8,123.0,99.0,'11111222,11111222,11144222' 
ADCP,ioos:station:wmo:42376:1,2012-11-02T05:40:00Z,29.1080,-87.9440,1.0,1.7,277.0,99.0,'11111222,11111222,11144222' 
ADCP,ioos:station:wmo:42376:1,2012-11-02T06:00:00Z,29.1080,-87.9440,1.0,0.8,194.0,99.0,'11111222,11111222,11144222' 
ADCP,ioos:station:wmo:42376:1,2012-11-02T06:20:00Z,29.1080,-87.9440,1.0,0.8,194.0,99.0,'11111222,11111222,11144222' 
ADCP,ioos:station:wmo:42376:1,2012-11-02T06:40:00Z,29.1080,-87.9440,1.0,2.5,264.0,99.0,'11111222,11111222,11144222' 
ADCP,ioos:station:wmo:42376:1,2012-11-02T07:00:00Z,29.1080,-87.9440,1.0,2.5,257.0,99.0,'11111222,11111222,11144222' 
ADCP,ioos:station:wmo:42376:1,2012-11-02T07:20:00Z,29.1080,-87.9440,1.0,2.5,257.0,99.0,'11111222,11111222,11144222' 
ADCP,ioos:station:wmo:42376:1,2012-11-02T07:40:00Z,29.1080,-87.9440,1.0,2.6,258.0,99.0,'11111222,11111222,11144222' 
ADCP,ioos:station:wmo:42376:1,2012-11-02T08:00:00Z,29.1080,-87.9440,1.0,3.0,261.0,99.0,'11111222,11111222,11144222' 
ADCP,ioos:station:wmo:42376:1,2012-11-02T08:20:00Z,29.1080,-87.9440,1.0,3.0,261.0,99.0,'11111222,11111222,11144222' 
ADCP,ioos:station:wmo:42376:1,2012-11-02T08:40:00Z,29.1080,-87.9440,1.0,2.9,260.0,99.0,'11111222,11111222,11144222' 
ADCP,ioos:station:wmo:42376:1,2012-11-02T09:00:00Z,29.1080,-87.9440,1.0,3.3,264.0,99.0,'11111222,11111222,11144222' 
ADCP,ioos:station:wmo:42376:1,2012-11-02T09:20:00Z,29.1080,-87.9440,1.0,3.3,264.0,99.0,'11111222,11111222,11144222' 
ADCP,ioos:station:wmo:42376:1,2012-11-02T09:40:00Z,29.1080,-87.9440,1.0,2.6,278.0,99.0,'11111222,11111222,11144222' 
ADCP,ioos:station:wmo:42376:1,2012-11-02T10:00:00Z,29.1080,-87.9440,1.0,2.4,291.0,99.0,'11111222,11111222,11144222' 
ADCP,ioos:station:wmo:42376:1,2012-11-02T10:20:00Z,29.1080,-87.9440,1.0,2.4,291.0,99.0,'11111222,11111222,11144222' 
ADCP,ioos:station:wmo:42376:1,2012-11-02T10:40:00Z,29.1080,-87.9440,1.0,2.1,289.0,99.0,'11111222,11111222,11144222' 
ADCP,ioos:station:wmo:42376:1,2012-11-02T11:00:00Z,29.1080,-87.9440,1.0,2.1,297.0,99.0,'11111222,11111222,11144222' 
ADCP,ioos:station:wmo:42376:1,2012-11-02T11:20:00Z,29.1080,-87.9440,1.0,2.1,297.0,99.0,'11111222,11111222,11144222' 
ADCP,ioos:station:wmo:42376:1,2012-11-02T11:40:00Z,29.1080,-87.9440,1.0,2.2,295.0,99.0,'11111222,11111222,11144222' 
ADCP,ioos:station:wmo:42376:1,2012-11-02T12:00:00Z,29.1080,-87.9440,1.0,2.7,292.0,99.0,'11111222,11111222,11144222' 
ADCP,ioos:station:wmo:42376:1,2012-11-02T12:20:00Z,29.1080,-87.9440,1.0,2.7,292.0,99.0,'11111222,11111222,11144222' 
ADCP,ioos:station:wmo:42376:1,2012-11-02T12:40:00Z,29.1080,-87.9440,1.0,3.2,300.0,99.0,'11111222,11111222,11144222' 
ADCP,ioos:station:wmo:42376:1,2012-11-02T13:00:00Z,29.1080,-87.9440,1.0,4.5,309.0,99.0,'11111222,11111222,11144222' 
ADCP,ioos:station:wmo:42376:1,2012-11-02T13:20:00Z,29.1080,-87.9440,1.0,4.5,309.0,99.0,'11111222,11111222,11144222' 
ADCP,ioos:station:wmo:42376:1,2012-11-02T13:40:00Z,29.1080,-87.9440,1.0,4.9,298.0,99.0,'11111222,11111222,11144222' 
ADCP,ioos:station:wmo:42376:1,2012-11-02T14:00:00Z,29.1080,-87.9440,1.0,3.6,277.0,99.0,'11111222,11111222,11144222' 
ADCP,ioos:station:wmo:42376:1,2012-11-02T14:20:00Z,29.1080,-87.9440,1.0,3.6,277.0,99.0,'11111222,11111222,11144222' 
ADCP,ioos:station:wmo:42376:1,2012-11-02T14:40:00Z,29.1080,-87.9440,1.0,4.5,315.0,99.0,'11111222,11111222,11144222' 
ADCP,ioos:station:wmo:42376:1,2012-11-02T15:00:00Z,29.1080,-87.9440,1.0,5.5,306.0,99.0,'11111222,11111222,11144222' 
ADCP,ioos:station:wmo:42376:1,2012-11-02T15:20:00Z,29.1080,-87.9440,1.0,5.5,306.0,99.0,'11111222,11111222,11144222' 
ADCP,ioos:station:wmo:42376:1,2012-11-02T15:40:00Z,29.1080,-87.9440,1.0,5.1,290.0,99.0,'11111222,11111222,11144222' 
ADCP,ioos:station:wmo:42376:1,2012-11-02T16:00:00Z,29.1080,-87.9440,1.0,2.9,310.0,99.0,'11111222,11111222,11144222' 
ADCP,ioos:station:wmo:42376:1,2012-11-02T16:20:00Z,29.1080,-87.9440,1.0,2.9,310.0,99.0,'11111222,11111222,11144222' 
ADCP,ioos:station:wmo:42376:1,2012-11-02T16:40:00Z,29.1080,-87.9440,1.0,1.9,310.0,99.0,'11111222,11111222,11144222' 
ADCP,ioos:station:wmo:42376:1,2012-11-02T17:00:00Z,29.1080,-87.9440,1.0,2.0,296.0,99.0,'11111222,11111222,11144222' 
ADCP,ioos:station:wmo:42376:1,2012-11-02T17:20:00Z,29.1080,-87.9440,1.0,2.0,296.0,99.0,'11111222,11111222,11144222' 
ADCP,ioos:station:wmo:42376:1,2012-11-02T17:40:00Z,29.1080,-87.9440,1.0,2.9,252.0,99.0,'11111222,11111222,11144222' 
ADCP,ioos:station:wmo:42376:1,2012-11-02T18:00:00Z,29.1080,-87.9440,1.0,3.2,199.0,99.0,'11111222,11111222,11144222' 
ADCP,ioos:station:wmo:42376:1,2012-11-02T18:20:00Z,29.1080,-87.9440,1.0,3.2,199.0,99.0,'11111222,11111222,11144222' 
ADCP,ioos:station:wmo:42376:1,2012-11-02T18:40:00Z,29.1080,-87.9440,1.0,2.1,202.0,99.0,'11111222,11111222,11144222' 
ADCP,ioos:station:wmo:42376:1,2012-11-02T19:00:00Z,29.1080,-87.9440,1.0,1.8,204.0,99.0,'11111222,11111222,11144222' 
ADCP,ioos:station:wmo:42376:1,2012-11-02T19:20:00Z,29.1080,-87.9440,1.0,1.8,204.0,99.0,'11111222,11111222,11144222' 
ADCP,ioos:station:wmo:42376:1,2012-11-02T19:40:00Z,29.1080,-87.9440,1.0,1.8,206.0,99.0,'11111222,11111222,11144222' 
ADCP,ioos:station:wmo:42376:1,2012-11-02T20:00:00Z,29.1080,-87.9440,1.0,1.7,280.0,99.0,'11111222,11111222,11144222' 
ADCP,ioos:station:wmo:42376:1,2012-11-02T20:20:00Z,29.1080,-87.9440,1.0,1.7,280.0,99.0,'11111222,11111222,11144222' 
ADCP,ioos:station:wmo:42376:1,2012-11-02T20:40:00Z,29.1080,-87.9440,1.0,2.5,276.0,99.0,'11111222,11111222,11144222' 
ADCP,ioos:station:wmo:42376:1,2012-11-02T21:00:00Z,29.1080,-87.9440,1.0,3.0,228.0,99.0,'11111222,11111222,11144222' 
ADCP,ioos:station:wmo:42376:1,2012-11-02T21:20:00Z,29.1080,-87.9440,1.0,3.0,228.0,99.0,'11111222,11111222,11144222' 
ADCP,ioos:station:wmo:42376:1,2012-11-02T21:40:00Z,29.1080,-87.9440,1.0,2.5,244.0,99.0,'11111222,11111222,11144222' 
ADCP,ioos:station:wmo:42376:1,2012-11-02T22:00:00Z,29.1080,-87.9440,1.0,1.8,132.0,99.0,'11111222,11111222,11144222' 
ADCP,ioos:station:wmo:42376:1,2012-11-02T22:20:00Z,29.1080,-87.9440,1.0,1.8,132.0,99.0,'11111222,11111222,11144222' 
ADCP,ioos:station:wmo:42376:1,2012-11-02T22:40:00Z,29.1080,-87.9440,1.0,2.2,107.0,99.0,'11111222,11111222,11144222' 
ADCP,ioos:station:wmo:42376:1,2012-11-02T23:00:00Z,29.1080,-87.9440,1.0,3.9,104.0,99.0,'11111222,11111222,11144222' 
ADCP,ioos:station:wmo:42376:1,2012-11-02T23:20:00Z,29.1080,-87.9440,1.0,3.9,104.0,99.0,'11111222,11111222,11144222' 
ADCP,ioos:station:wmo:42376:1,2012-11-02T23:40:00Z,29.1080,-87.9440,1.0,4.8,104.0,99.0,'11111222,11111222,11144222' 
ADCP,ioos:station:wmo:42376:1,2012-11-03T00:00:00Z,29.1080,-87.9440,1.0,5.1,104.0,99.0,'11111222,11111222,11144222' 
ADCP,ioos:station:wmo:42376:1,2012-11-03T00:20:00Z,29.1080,-87.9440,1.0,5.1,104.0,99.0,'11111222,11111222,11144222' 
ADCP,ioos:station:wmo:42376:1,2012-11-03T00:40:00Z,29.1080,-87.9440,1.0,5.9,121.0,99.0,'11111222,11111222,11144222' 
ADCP,ioos:station:wmo:42376:1,2012-11-03T01:00:00Z,29.1080,-87.9440,1.0,6.7,269.0,99.0,'11111222,11111222,11144222' 
ADCP,ioos:station:wmo:42376:1,2012-11-03T01:20:00Z,29.1080,-87.9440,1.0,6.7,269.0,99.0,'11111222,11111222,11144222' 
ADCP,ioos:station:wmo:42376:1,2012-11-03T01:40:00Z,29.1080,-87.9440,1.0,6.9,316.0,99.0,'11111222,11111222,11144222' 
ADCP,ioos:station:wmo:42376:1,2012-11-03T02:00:00Z,29.1080,-87.9440,1.0,7.5,315.0,99.0,'11111222,11111222,11144222' 
ADCP,ioos:station:wmo:42376:1,2012-11-03T02:20:00Z,29.1080,-87.9440,1.0,7.5,315.0,99.0,'11111222,11111222,11144222' 
ADCP,ioos:station:wmo:42376:1,2012-11-03T02:40:00Z,29.1080,-87.9440,1.0,8.1,315.0,99.0,'11111222,11111222,11144222' 
ADCP,ioos:station:wmo:42376:1,2012-11-03T03:00:00Z,29.1080,-87.9440,1.0,7.8,316.0,99.0,'11111222,11111222,11144222' 
ADCP,ioos:station:wmo:42376:1,2012-11-03T03:20:00Z,29.1080,-87.9440,1.0,7.8,316.0,99.0,'11111222,11111222,11144222' 
ADCP,ioos:station:wmo:42376:1,2012-11-03T03:40:00Z,29.1080,-87.9440,1.0,7.6,316.0,99.0,'11111222,11111222,11144222' 
ADCP,ioos:station:wmo:42376:1,2012-11-03T04:00:00Z,29.1080,-87.9440,1.0,7.5,316.0,99.0,'11111222,11111222,11144222' 
ADCP,ioos:station:wmo:42376:1,2012-11-03T04:20:00Z,29.1080,-87.9440,1.0,7.5,316.0,99.0,'11111222,11111222,11144222' 
ADCP,ioos:station:wmo:42376:1,2012-11-03T04:40:00Z,29.1080,-87.9440,1.0,7.9,314.0,99.0,'11111222,11111222,11144222' 
ADCP,ioos:station:wmo:42376:1,2012-11-03T05:00:00Z,29.1080,-87.9440,1.0,7.8,316.0,99.0,'11111222,11111222,11144222' 
ADCP,ioos:station:wmo:42376:1,2012-11-03T05:20:00Z,29.1080,-87.9440,1.0,7.8,316.0,99.0,'11111222,11111222,11144222' 
ADCP,ioos:station:wmo:42376:1,2012-11-03T05:40:00Z,29.1080,-87.9440,1.0,8.1,316.0,99.0,'11111222,11111222,11144222' 
ADCP,ioos:station:wmo:42376:1,2012-11-03T06:00:00Z,29.1080,-87.9440,1.0,8.1,316.0,99.0,'11111222,11111222,11144222' 
ADCP,ioos:station:wmo:42376:1,2012-11-03T06:20:00Z,29.1080,-87.9440,1.0,8.1,316.0,99.0,'11111222,11111222,11144222' 
ADCP,ioos:station:wmo:42376:1,2012-11-03T06:40:00Z,29.1080,-87.9440,1.0,7.3,319.0,99.0,'11111222,11111222,11144222' 
ADCP,ioos:station:wmo:42376:1,2012-11-03T07:00:00Z,29.1080,-87.9440,1.0,7.0,321.0,99.0,'11111222,11111222,11144222' 
ADCP,ioos:station:wmo:42376:1,2012-11-03T07:20:00Z,29.1080,-87.9440,1.0,7.0,321.0,99.0,'11111222,11111222,11144222' 
ADCP,ioos:station:wmo:42376:1,2012-11-03T07:40:00Z,29.1080,-87.9440,1.0,7.1,323.0,99.0,'11111222,11111222,11144222' 
ADCP,ioos:station:wmo:42376:1,2012-11-03T08:00:00Z,29.1080,-87.9440,1.0,6.8,322.0,99.0,'11111222,11111222,11144222' 
ADCP,ioos:station:wmo:42376:1,2012-11-03T08:20:00Z,29.1080,-87.9440,1.0,6.8,322.0,99.0,'11111222,11111222,11144222' 
ADCP,ioos:station:wmo:42376:1,2012-11-03T08:40:00Z,29.1080,-87.9440,1.0,5.6,325.0,99.0,'11111222,11111222,11144222' 
ADCP,ioos:station:wmo:42376:1,2012-11-03T09:00:00Z,29.1080,-87.9440,1.0,5.6,324.0,99.0,'11111222,11111222,11144222' 
ADCP,ioos:station:wmo:42376:1,2012-11-03T09:20:00Z,29.1080,-87.9440,1.0,5.6,324.0,99.0,'11111222,11111222,11144222' 
ADCP,ioos:station:wmo:42376:1,2012-11-03T09:40:00Z,29.1080,-87.9440,1.0,99.0,323.0,99.0,'11144222,11111222,11144222' 
ADCP,ioos:station:wmo:42376:1,2012-11-03T10:00:00Z,29.1080,-87.9440,1.0,4.0,318.0,99.0,'11111222,11111222,11144222' 
ADCP,ioos:station:wmo:42376:1,2012-11-03T10:20:00Z,29.1080,-87.9440,1.0,4.0,318.0,99.0,'11111222,11111222,11144222' 
ADCP,ioos:station:wmo:42376:1,2012-11-03T10:40:00Z,29.1080,-87.9440,1.0,2.9,312.0,99.0,'11111222,11111222,11144222' 
ADCP,ioos:station:wmo:42376:1,2012-11-03T11:00:00Z,29.1080,-87.9440,1.0,3.3,312.0,99.0,'11111222,11111222,11144222' 
ADCP,ioos:station:wmo:42376:1,2012-11-03T11:20:00Z,29.1080,-87.9440,1.0,3.3,312.0,99.0,'11111222,11111222,11144222' 
ADCP,ioos:station:wmo:42376:1,2012-11-03T11:40:00Z,29.1080,-87.9440,1.0,3.4,309.0,99.0,'11111222,11111222,11144222' 
ADCP,ioos:station:wmo:42376:1,2012-11-03T12:00:00Z,29.1080,-87.9440,1.0,4.2,307.0,99.0,'11111222,11111222,11144222' 
ADCP,ioos:station:wmo:42376:1,2012-11-03T12:20:00Z,29.1080,-87.9440,1.0,4.2,307.0,99.0,'11111222,11111222,11144222' 
ADCP,ioos:station:wmo:42376:1,2012-11-03T12:40:00Z,29.1080,-87.9440,1.0,4.2,307.0,99.0,'11111222,11111222,11144222' 
ADCP,ioos:station:wmo:42376:1,2012-11-03T13:00:00Z,29.1080,-87.9440,1.0,4.2,307.0,99.0,'11111222,11111222,11144222' 
ADCP,ioos:station:wmo:42376:1,2012-11-03T13:20:00Z,29.1080,-87.9440,1.0,4.2,307.0,99.0,'11111222,11111222,11144222' 
ADCP,ioos:station:wmo:42376:1,2012-11-03T13:40:00Z,29.1080,-87.9440,1.0,4.7,301.0,99.0,'11111222,11111222,11144222' 
ADCP,ioos:station:wmo:42376:1,2012-11-03T14:00:00Z,29.1080,-87.9440,1.0,4.6,231.0,99.0,'11111222,11111222,11144222' 
ADCP,ioos:station:wmo:42376:1,2012-11-03T14:20:00Z,29.1080,-87.9440,1.0,4.6,231.0,99.0,'11111222,11111222,11144222' 
ADCP,ioos:station:wmo:42376:1,2012-11-03T14:40:00Z,29.1080,-87.9440,1.0,4.1,210.0,99.0,'11111222,11111222,11144222' 
ADCP,ioos:station:wmo:42376:1,2012-11-03T15:00:00Z,29.1080,-87.9440,1.0,4.0,266.0,99.0,'11111222,11111222,11144222' 
ADCP,ioos:station:wmo:42376:1,2012-11-03T15:20:00Z,29.1080,-87.9440,1.0,4.0,266.0,99.0,'11111222,11111222,11144222' 
ADCP,ioos:station:wmo:42376:1,2012-11-03T15:40:00Z,29.1080,-87.9440,1.0,3.8,300.0,99.0,'11111222,11111222,11144222' 
ADCP,ioos:station:wmo:42376:1,2012-11-03T16:00:00Z,29.1080,-87.9440,1.0,3.1,310.0,99.0,'11111222,11111222,11144222' 
ADCP,ioos:station:wmo:42376:1,2012-11-03T16:20:00Z,29.1080,-87.9440,1.0,3.1,310.0,99.0,'11111222,11111222,11144222' 
ADCP,ioos:station:wmo:42376:1,2012-11-03T16:40:00Z,29.1080,-87.9440,1.0,3.3,277.0,99.0,'11111222,11111222,11144222' 
ADCP,ioos:station:wmo:42376:1,2012-11-03T17:00:00Z,29.1080,-87.9440,1.0,3.9,228.0,99.0,'11111222,11111222,11144222' 
ADCP,ioos:station:wmo:42376:1,2012-11-03T17:20:00Z,29.1080,-87.9440,1.0,3.9,228.0,99.0,'11111222,11111222,11144222' 
ADCP,ioos:station:wmo:42376:1,2012-11-03T17:40:00Z,29.1080,-87.9440,1.0,3.6,147.0,99.0,'11111222,11111222,11144222' 
ADCP,ioos:station:wmo:42376:1,2012-11-03T18:00:00Z,29.1080,-87.9440,1.0,3.7,227.0,99.0,'11111222,11111222,11144222' 
ADCP,ioos:station:wmo:42376:1,2012-11-03T18:20:00Z,29.1080,-87.9440,1.0,3.7,227.0,99.0,'11111222,11111222,11144222' 
ADCP,ioos:station:wmo:42376:1,2012-11-03T18:40:00Z,29.1080,-87.9440,1.0,3.5,225.0,99.0,'11111222,11111222,11144222' 
ADCP,ioos:station:wmo:42376:1,2012-11-03T19:00:00Z,29.1080,-87.9440,1.0,3.4,147.0,99.0,'11111222,11111222,11144222' 
ADCP,ioos:station:wmo:42376:1,2012-11-03T19:20:00Z,29.1080,-87.9440,1.0,3.4,147.0,99.0,'11111222,11111222,11144222' 
ADCP,ioos:station:wmo:42376:1,2012-11-03T19:40:00Z,29.1080,-87.9440,1.0,2.9,238.0,99.0,'11111222,11111222,11144222' 